Regional Weather Roundup
Issued by NWS

Home | Current Version | Previous Version | Graphics & Text | Print | Product List | Glossary On
Versions: 1 2 3 4 5 6 7 8 9 10 11 12 13 14 15 16 17 18 19 20 21 22 23 24 25 26 27 28 29 30 31 32 33 34 35 36 37 38 39 40 41 42 43 44 45 46 47 48 49 50
000
ASUS43 KDTX 031401
RWRMI
MICHIGAN HOURLY REGIONAL WEATHER ROUNDUP
NATIONAL WEATHER SERVICE DETROIT/PONTIAC MI
1000 AM EDT SUN MAY 03 2015

NOTE: "FAIR" INDICATES FEW OR NO CLOUDS BELOW 12,000 FEET WITH NO
SIGNIFICANT WEATHER AND/OR OBSTRUCTION TO VISIBILITY.

MIZ047>049-052>055-059>063-066>070-074>076-081>083-031500-
SOUTHEAST LOWER MICHIGAN

CITY           SKY/WX    TMP DP  RH WIND       PRES   REMARKS
ADRIAN         SUNNY     66  44  45 W8        30.08S
ALMA           SUNNY     67  42  40 SW10      30.02S
ANN ARBOR      SUNNY     69  45  41 W10       30.06S
BAD AXE        SUNNY     69  38  33 W8        30.01S
CARO           SUNNY     68  44  41 CALM      30.02R
DETROIT CITY   SUNNY     69  41  36 W10       30.06S
DETROIT        SUNNY     71  43  36 SW9       30.07S
FLINT          SUNNY     70  43  37 SW10      30.04S
HILLSDALE      SUNNY     69  40  34 SW7       30.07S
HOWELL         SUNNY     69  42  37 W14       30.05S

CITY           SKY/WX    TMP DP  RH WIND       PRES   REMARKS
JACKSON        SUNNY     69  43  38 SW10      30.06S
LAMBERTVILLE   SUNNY     70  43  37 W5        30.08S
LANSING        SUNNY     68  43  40 SW10      30.04S
LAPEER         FAIR      68  40  36 W10       30.04S
MASON          SUNNY     68  41  37 SW6       30.05S
MT. CLEMENS    SUNNY     70  44  40 SW10      30.03S
PONTIAC        SUNNY     69  41  36 W13       30.04F
PORT HOPE        N/A     71  39  31 W9        29.98S
PORT HURON     MOSUNNY   68  43  40 SW7       30.04S
TRI CITIES     PTSUNNY   68  42  38 SW12      30.01S
MIDLAND        PTSUNNY   68  40  36 SW7       30.00S
TROY           SUNNY     71  40  33 W7        30.06F
SAGINAW HB     SUNNY     68  41  37 SW13      30.01S
$$
MIZ043>046-050>051-056>058-064>065-071>073-077>080-031500-
SOUTHWEST LOWER MICHIGAN

CITY           SKY/WX    TMP DP  RH WIND       PRES   REMARKS
BATTLE CREEK   SUNNY     68  44  42 SW13      30.05S
BENTON HARBOR  MOSUNNY   67  46  47 SW7       30.01S
BIG RAPIDS     PTSUNNY   67  44  41 SW5       29.98F
COLDWATER      SUNNY     67  44  42 SW9       30.06F
FREMONT        FAIR      64  39  38 S8        29.99S
HOLLAND        MOSUNNY   68  44  42 SW10      30.01S
GRAND RAPIDS   MOSUNNY   68  43  40 SW9       30.01F
IONIA          FAIR      70  41  34 SW17      30.01S
KALAMAZOO      SUNNY     68  46  45 S9        30.04F
LUDINGTON      PTSUNNY   68  47  46 S10       29.95F
MARSHALL       SUNNY     66  44  44 SW7       30.04F
MOUNT PLEASANT MOSUNNY   68  40  36 SW8       29.99F
MUSKEGON       CLOUDY    64  41  42 S13       29.99F
SOUTH HAVEN    PTSUNNY   69  41  35 SW6       30.01S
$$
MIZ016>042-031500-
NORTHERN LOWER MICHIGAN

CITY           SKY/WX    TMP DP  RH WIND       PRES   REMARKS
ALPENA         SUNNY     72  41  32 SW10      29.94S
BEAVER ISLAND  SUNNY     65  45  49 SW13      29.89S
BELLAIRE       PTSUNNY   67  43  41 S7        29.93F
CADILLAC       MOSUNNY   66  46  47 SW12      29.97S
CHARLEVOIX     SUNNY     67  45  44 S8        29.94S
FRANKFORT      SUNNY     67  42  40 S10G17    29.93F
GAYLORD        SUNNY     66  43  43 SW15      29.95S
GRAYLING       SUNNY     68  42  39 SW9       29.96F
HARBOR SPRINGS SUNNY     65  42  44 SW5       29.92S
HOUGHTON LAKE  PTSUNNY   64  43  46 SW6       29.98S
MANISTEE       MOSUNNY   64  46  52 SW7       29.95F
OSCODA         MOSUNNY   71  41  33 SW10      29.96S
PELLSTON       SUNNY     69  45  41 SW12      29.91S
ROGERS CITY    MOSUNNY   71  46  40 W10G16    29.93S
TRAVERSE CITY  MOSUNNY   69  46  43 SW10      29.93S
$$
MIZ007>008-015-031500-
EASTERN UPPER MICHIGAN

CITY           SKY/WX    TMP DP  RH WIND       PRES   REMARKS
KINROSS        SUNNY     64  45  48 SW9       29.89S
MACKINAC ISLAN SUNNY     63  45  51 CALM      29.90S
NEWBERRY       SUNNY     59  44  56 S15       29.86S
S. S. MARIE    SUNNY     58  42  55 S6        29.88F
MUNISING         N/A     69  47  45 SW8G20    29.79F
$$
MIZ004>006-011>014-085-031500-
CENTRAL UPPER MICHIGAN

CITY           SKY/WX    TMP DP  RH WIND       PRES   REMARKS
MANISTIQUE     SUNNY     48  38  69 S9        29.87S
ESCANABA       SUNNY     61  46  59 S9        29.84F
MENOMINEE      SUNNY     66  48  52 SW14      29.86R
SAWYER-GWINN   SUNNY     64  48  55 SW14G21   29.81F
$$
MIZ001>003-009>011-084-031500-
WESTERN UPPER MICHIGAN

CITY           SKY/WX    TMP DP  RH WIND       PRES   REMARKS
IRON MOUNTAIN  SUNNY     68  48  48 SW14G25   29.82F
HOUGHTON       CLOUDY    59  53  80 SW6       29.77F
COPPER HARBOR    N/A     60  53  77 W8        29.76R
IRONWOOD       PTSUNNY   64  52  63 S8        29.72F
$$

ABBREVIATIONS USED IN REMARKS
   TC - TEMPERATURE IN CELSIUS
  WCI - WIND CHILL INDEX
   HX - HEAT INDEX
  VSB - VISIBILITY




USA.gov is the U.S. government's official web portal to all federal, state and local government web resources and services.